Terminal Aerodrome Forecast
Issued by NWS Shreveport, LA

Home | Current Version | Previous Version | Text Only | Print | Product List | Glossary On
Versions: 1 2 3 4 5 6 7 8 9 10 11 12 13 14 15 16 17 18 19 20 21 22
000
FTUS44 KSHV 201000 AAA
TAFTXK
TAF AMD
KTXK 201017Z 2010/2106 VRB03KT 1SM BR SKC
      TEMPO 2010/2013 1/4SM FG VV002
     FM201300 VRB05KT P6SM SCT030
      TEMPO 2013/2015 2SM BR BKN020
     FM210100 00000KT P6SM SKC=

USA.gov is the U.S. government's official web portal to all federal, state and local government web resources and services.